Weather in Ontario

United States     34°03′16″N   117°37′39″W
temp.,
°C
wind,
m/s
gust,
m/s
humid.,
%
clouds,
%
prec.,
mm/h
press.,
hPa
HPBL,
m
18 may, tue
tue1823:00+15sw337913 0.0 1017371
02:00+14ssw118166 0.0 1016389
05:00+15s107764 0.0 1015430
08:00+16sw21694 0.0 1016582
11:00+21wsw43450 0.0 1014794
14:00+25wsw55360 0.0 1012930
17:00+25sw54390 0.0 1010816
20:00+20sw33530 0.0 1011333
19 may, wed
wed1923:00+18sw22630 0.0 1012224
02:00+16wsw12713 0.0 1012122
05:00+15wsw11771 0.0 101194
08:00+17wsw11670 0.0 1012357
11:00+22wsw43430 0.0 1011926
14:00+25wsw55360 0.0 10091167
17:00+24sw55394 0.0 10081062
20:00+20sw445514 0.0 1009506
20 may, thu
thu2023:00+16sw33739 0.0 1011465
02:00+15wsw217521 0.0 1010432
05:00+15w117391 0.0 1010565
08:00+16ese116690 0.0 1011889
11:00+18w115667 0.0 10111092
14:00+22wsw44390 0.0 10091447
17:00+21sw66430 0.0 10081341
20:00+17ssw55607 0.0 1010770
21 may, fri
fri2123:00+15ssw22692 0.0 1011545
02:00+14sw22716 0.0 1011388
05:00+13sw22699 0.0 1012363
08:00+15ssw21561 0.0 1013755
11:00+19sw33330 0.0 10141884
14:00+22wsw76284 0.0 10122314
17:00+20sw77282 0.0 10131980
20:00+17ssw55400 0.0 1014818
22 may, sat
sat2223:00+14s22570 0.0 1016508
02:00+13s23681 0.0 1016477
05:00+12ese23671 0.0 1016502
08:00+14ese33590 0.0 1018801
11:00+19sse22370 0.0 10171260
14:00+22sw64313 0.0 10151844
17:00+20sw66393 0.0 10151343
20:00+16ssw44575 0.0 1016853